Presure
118 141 152 154 149 125 137 137 158 151 152 119 96 146 115 141 141 140 131 95 136 127 113 125 165 174 170 182 182 194 175 185 169 164 109 160 164 158 139 124 176 134 134
141 149 150 157 100 138 152 160 146 110 145 121 158 154 99 96 98 131 129 96 83 91 166 172 138 169 173 189 192 188 156 194 155 186 136 116 167 118 167 172 132 154 119
119 144 151 154 114 140 141 158 142 148 155 148 111 138 146 116 128 85 113 92 90 117 92 152 182 160 104 95 181 177 186 163 188 166 170 169 120 130 132 120 135 143 127
142 144 148 137 144 137 124 101 150 149 159 139 112 161 159 132 110 90 85 87 94 151 124 140 167 179 180 157 136 179 174 189 189 178 127 144 123 107 122 116 174 127 111
140 107 114 100 133 138 164 153 151 164 157 148 149 99 89 100 81 78 78 75 90 90 94 163 192 187 156 171 160 122 162 97 178 138 157 182 109 127 125 125 114 126 121
121 94 96 99 101 151 159 102 97 99 153 122 150 80 142 99 78 83 79 146 125 96 141 156 164 167 159 168 169 169 184 163 181 163 139 112 105 103 102 139 110 115 114
102 93 101 141 98 97 139 131 108 144 121 84 88 90 127 85 90 170 109 177 169 162 169 163 183 159 185 188 142 172 170 158 162 175 164 117 140 129 130 98 110 107 109
133 99 95 88 104 142 137 142 123 143 140 148 147 148 98 134 148 147 157 89 157 161 170 132 99 175 169 168 154 149 164 174 160 187 181 162 131 119 116 108 117 113 101
90 96 97 113 102 142 142 141 143 140 145 136 96 135 100 87 102 162 151 127 85 107 90 150 154 94 133 162 156 160 154 142 155 164 162 130 139 133 112 108 109 108 104
102 92 101 126 103 105 146 143 142 145 146 144 107 147 83 83 87 83 142 90 90 90 92 94 168 141 154 153 169 157 153 140 159 138 178 165 178 143 144 109 162 151 114
102 143 148 149 97 108 131 117 129 139 147 84 83 80 79 83 82 85 89 89 89 90 91 93 91 95 132 141 159 169 157 143 151 155 134 175 141 116 121 141 130 116 122
143 104 93 157 137 130 125 142 141 84 145 107 82 83 79 88 131 143 108 90 90 89 87 95 95 91 108 124 121 145 151 148 147 149 152 145 151 133 153 149 134 162 156
97 88 99 150 124 141 128 83 121 143 147 89 79 77 84 84 146 90 142 87 90 96 98 90 96 128 135 100 98 142 147 143 141 152 150 125 121 152 139 150 149 119 109
125 153 137 137 144 141 85 140 87 141 141 79 135 144 140 115 142 83 88 92 85 95 91 88 146 97 96 140 133 163 150 119 136 142 144 139 161 118 148 136 134 149 126
141 121 77 144 106 140 142 127 89 142 149 139 97 131 143 101 74 100 120 82 99 140 124 98 96 100 149 105 119 159 142 141 153 149 132 141 143 158 141 133 144 137 149
138 99 131 146 142 140 138 83 115 144 99 87 148 135 138 86 92 104 89 123 110 106 96 128 135 139 101 145 142 139 125 148 145 138 146 131 143 139 144 141 119 140 137
131 99 134 94 90 93 82 83 94 139 136 148 148 147 97 93 88 122 117 83 112 81 127 191 132 101 124 105 107 118 136 101 130 153 181 146 129 134 134 124 129 135 140
131 86 78 84 89 88 82 80 79 90 97 91 94 79 84 86 86 90 89 89 91 95 129 174 141 138 135 146 122 134 127 132 177 134 139 124 139 145 138 133 145 136 136
84 79 78 76 79 76 74 87 114 94 114 119 88 83 83 91 98 110 107 101 95 128 129 131 90 146 133 159 177 183 178 175 165 136 150 146 147 117 143 144 125 133 164
118 96 96 104 135 136 134 129 118 119 125 129 128 128 141 164 108 129 125 128 128 156 139 153 164 145 162 203 161 134 161 165 168 180 164 162 166 159 164 147 122 149 166
102 98 107 108 113 110 171 170 167 167 166 128 129 166 167 155 173 127 167 159 126 165 163 241 227 297 329 285 319 309 316 330 295 286 180 174 178 176 127 171 153 157 121
131 167 165 151 135 125 163 124 149 124 151 159 162 187 169 220 221 194 243 189 229 262 253 262 248 243 247 253 256 263 265 271 276 164 206 285 297 276 176 156 163 180 226
149 123 142 151 156 162 159 157 155 189 202 242 248 209 215 261 266 264 261 251 247 238 233 241 243 247 248 260 287 301 307 318 421 332 307 323 323 295 283 267 251 234 229
158 163 159 159 158 165 225 233 233 238 247 213 217 226 252 246 219 227 231 238 236 239 237 237 240 278 268 278 286 291 317 429 413 474 385 301 288 333 256 285 266 229 231
203 213 228 230 231 243 245 216 233 235 225 269 251 248 213 225 220 230 229 230 239 246 267 272 265 269 259 253 278 285 430 406 400 383 377 374 293 264 276 354 254 239 255
248 244 232 229 226 223 230 250 249 276 251 238 213 223 221 221 232 253 281 283 278 274 253 262 266 262 250 255 270 300 488 467 505 371 351 352 349 295 266 264 276 265 249
Wind_Speed
18 22 23 23 23 15 21 16 20 19 19 14 5 14 11 16 14 15 16 6 18 17 13 19 20 21 20 21 21 23 20 21 19 18 20 17 18 18 15 13 21 9 10
23 24 24 24 8 28 23 21 17 9 21 17 21 22 6 2 2 18 17 8 9 12 21 22 21 22 22 23 24 22 17 23 18 23 17 17 21 15 20 21 7 18 15
14 26 26 24 9 27 27 20 18 23 19 18 10 19 23 11 19 3 13 6 10 17 15 22 24 19 20 20 19 19 21 23 24 22 22 21 16 10 9 10 8 11 10
26 26 27 17 24 28 19 10 21 24 24 19 7 23 20 20 11 2 7 10 12 24 21 22 23 24 22 19 17 20 20 22 23 22 14 21 13 18 12 16 23 10 19
27 10 11 9 19 27 25 21 25 22 21 19 22 7 2 8 4 7 8 9 17 17 19 23 25 26 22 21 22 23 23 26 22 20 21 25 20 14 15 13 18 11 12
20 8 9 9 11 25 27 12 11 11 28 15 21 6 20 11 7 10 11 20 25 20 24 27 27 26 24 25 24 23 26 24 24 24 23 22 23 23 23 18 21 18 18
14 10 9 30 10 11 27 26 16 25 20 8 6 9 23 10 13 28 23 26 27 29 28 30 28 27 26 27 22 26 25 23 24 27 26 25 21 20 20 21 24 27 24
29 14 11 10 14 30 31 29 24 27 29 29 28 27 13 25 29 28 29 14 29 30 31 23 23 31 29 29 24 23 25 31 27 32 30 26 24 26 27 27 24 25 28
14 16 17 21 16 33 31 32 30 31 29 32 13 30 13 11 17 32 33 25 17 22 21 29 29 24 27 30 27 28 25 22 26 28 27 27 26 28 33 33 33 30 34
19 14 21 37 16 18 34 33 33 32 33 33 17 33 11 14 17 16 33 22 23 22 26 27 35 28 32 31 34 30 28 27 30 26 34 32 35 29 29 36 32 31 37
20 41 42 43 14 21 32 24 32 35 36 13 12 14 14 18 18 22 23 23 25 27 28 31 29 33 32 30 37 41 33 29 31 31 31 37 33 34 34 32 33 36 37
43 20 15 47 37 34 35 39 38 16 38 25 16 17 15 25 33 35 27 29 27 25 24 34 35 31 37 33 35 37 38 34 32 33 35 35 37 38 39 38 40 42 40
20 18 21 46 33 44 39 20 34 41 41 22 17 18 24 26 39 32 38 18 33 36 26 32 39 40 39 40 40 41 41 40 38 42 40 38 39 40 38 41 42 45 42
39 51 46 45 47 47 23 44 23 44 43 18 40 43 41 34 42 22 32 29 26 40 38 33 42 42 36 46 41 48 48 41 40 42 42 41 50 38 44 42 41 45 44
51 41 20 51 30 47 49 44 28 48 51 46 30 41 46 31 17 28 37 29 32 45 46 46 44 47 48 44 47 50 49 47 49 47 45 48 49 52 44 44 43 42 44
54 32 49 53 51 51 51 28 37 53 36 30 53 48 52 35 40 42 43 44 44 44 48 48 49 50 50 51 51 50 49 50 50 48 52 49 52 51 51 47 44 46 46
55 36 53 32 32 33 29 31 39 53 53 57 57 57 41 46 44 45 45 35 47 32 50 70 53 54 50 55 56 53 52 42 50 54 74 53 54 52 54 50 50 52 53
57 32 27 30 34 35 35 35 34 46 46 43 50 31 40 44 48 51 52 53 55 57 58 73 59 57 58 63 54 58 55 55 75 55 55 53 56 57 56 57 56 57 57
30 27 25 31 33 32 28 44 54 54 56 49 47 41 43 44 57 56 58 59 59 63 61 61 35 67 62 73 80 83 81 79 71 59 65 62 61 55 62 57 57 60 71
54 44 44 48 60 61 59 61 55 56 57 60 62 63 67 76 62 60 61 64 64 75 70 76 79 70 79 87 76 63 76 77 78 82 74 74 75 71 69 62 57 67 75
51 48 52 53 54 56 75 75 73 72 73 66 68 80 83 77 84 65 81 78 67 82 84 91 89 87 80 93 88 94 95 94 105 104 86 82 85 84 59 79 66 74 57
67 80 80 74 67 64 74 62 72 64 75 80 82 85 85 83 85 88 84 83 85 81 86 82 83 86 88 90 92 94 95 96 96 69 77 93 105 102 82 68 75 82 69
78 65 73 76 76 77 76 77 79 83 87 93 88 82 85 73 68 70 72 77 77 79 80 81 83 84 85 87 76 74 80 84 84 91 85 86 88 92 100 95 88 75 78
83 83 80 79 78 81 88 90 90 92 92 80 84 85 77 75 81 80 79 78 77 78 78 80 81 62 70 66 65 79 83 67 63 56 70 73 65 73 86 94 91 83 84
81 82 83 84 83 87 88 81 88 86 84 71 77 77 79 80 80 79 79 78 77 74 57 52 59 57 64 72 63 76 56 54 50 47 51 60 67 73 66 74 84 88 84
84 83 83 84 83 85 87 81 81 67 72 76 78 80 79 80 78 66 46 40 39 40 56 55 54 57 59 65 63 72 39 39 42 42 43 47 59 71 74 69 65 82 91
Wind_Direction
258 265 271 271 267 257 279 275 295 289 296 264 195 297 275 298 299 300 289 326 309 303 327 311 305 303 298 293 288 283 282 275 280 287 311 277 276 278 278 284 280 286 290
256 271 269 272 224 271 287 287 282 267 279 273 300 297 228 203 271 284 282 317 341 330 306 299 305 302 303 287 285 285 284 279 283 275 286 295 278 292 277 274 272 273 292
251 263 271 271 232 265 277 289 270 283 290 288 262 282 291 275 281 355 299 326 327 302 325 300 292 295 308 313 288 282 285 291 280 279 271 271 289 269 274 290 302 289 281
251 259 266 267 258 266 265 247 285 279 295 274 265 299 294 275 280 326 353 334 321 300 300 300 294 289 288 291 294 287 284 280 281 277 268 290 262 311 279 289 269 285 298
248 240 251 218 264 264 283 283 287 283 289 281 289 264 229 272 327 336 350 357 323 322 317 291 289 285 292 286 289 303 282 314 278 287 272 276 292 266 276 269 291 279 285
245 233 245 243 237 269 277 244 242 249 286 279 290 236 289 272 309 314 331 290 295 315 302 299 297 297 288 285 282 282 284 277 285 280 295 282 308 311 313 269 293 282 283
248 238 254 256 244 248 260 263 257 276 268 211 231 255 278 292 293 289 287 295 292 296 292 297 283 298 284 279 284 286 285 281 280 282 276 275 256 268 261 318 291 295 296
250 246 256 229 273 255 259 265 269 272 275 284 284 288 278 293 290 287 293 324 291 293 292 303 326 286 289 289 291 287 290 288 281 283 282 272 253 268 268 288 296 290 305
247 257 270 269 276 258 260 263 267 267 273 271 259 276 280 297 297 285 286 296 317 313 327 290 291 325 302 288 292 287 286 276 286 286 276 256 259 265 275 288 284 287 303
250 253 268 255 276 276 262 263 267 271 273 273 266 277 288 304 303 317 286 318 317 320 324 320 289 288 291 289 284 284 282 278 282 273 279 272 275 268 268 284 270 273 282
255 256 260 261 268 261 262 262 266 268 275 260 270 283 292 300 306 311 310 308 309 316 321 317 322 319 293 280 282 285 281 274 276 277 280 280 265 276 278 273 269 284 274
253 260 244 263 263 264 266 265 265 267 274 272 278 286 291 288 283 278 294 303 309 315 320 309 312 318 308 295 301 284 283 282 277 277 276 273 274 280 273 276 281 271 270
246 222 257 261 262 262 261 262 269 271 274 273 282 287 286 294 278 292 276 311 311 297 302 318 311 287 282 310 313 282 281 279 276 281 281 279 280 275 275 274 275 281 287
257 260 254 261 263 264 255 266 279 270 270 279 275 277 278 284 280 315 303 292 315 298 307 310 276 304 302 277 281 277 279 294 279 279 278 274 277 281 276 272 272 275 275
258 257 254 260 265 267 269 269 270 273 275 274 287 278 279 288 287 290 281 304 293 277 285 300 302 301 274 297 292 277 278 278 270 272 277 276 275 275 271 273 273 273 276
259 253 264 265 266 267 268 270 275 275 278 283 280 281 283 297 298 290 298 278 288 293 298 278 279 278 296 276 278 273 286 275 276 277 275 276 274 277 277 275 276 273 270
258 254 264 256 261 267 269 272 272 276 278 280 280 281 294 292 297 278 275 295 280 303 282 275 281 290 281 288 288 285 275 284 275 270 275 269 277 275 276 275 273 276 276
257 253 271 266 265 267 274 277 281 272 271 276 273 298 294 292 295 289 291 291 289 286 280 280 282 280 279 281 276 278 277 276 272 271 269 276 268 268 269 273 271 274 274
258 265 268 276 275 278 284 273 276 271 274 286 280 290 293 285 278 279 279 281 284 281 283 282 293 280 276 279 277 275 275 276 277 277 274 273 272 274 273 267 275 271 273
259 260 266 268 272 273 276 275 274 274 276 277 277 278 280 280 277 282 284 282 281 284 281 281 279 279 276 278 276 277 275 275 275 271 274 274 274 273 274 272 275 270 273
263 264 269 271 274 271 273 276 277 279 279 281 282 279 279 281 282 279 283 282 278 282 281 284 280 280 282 280 280 277 277 276 271 268 269 268 267 270 271 272 272 272 278
266 265 267 269 274 276 276 273 278 280 278 278 278 281 280 287 285 285 285 282 283 284 283 284 285 284 284 283 282 281 280 278 276 279 272 264 259 260 267 266 269 267 251
264 272 271 270 274 276 278 277 276 281 284 288 288 284 286 286 285 285 285 283 285 286 286 287 285 286 286 284 284 289 286 282 275 268 268 262 259 258 255 255 254 250 247
265 267 271 274 276 278 281 282 283 284 285 283 286 287 283 282 289 289 286 285 286 286 287 287 287 281 285 286 295 298 296 285 272 263 256 259 255 254 252 250 248 249 245
272 276 278 279 280 281 280 282 285 287 288 284 283 283 288 287 288 287 287 288 288 288 283 280 283 284 287 290 304 301 301 285 266 255 247 244 251 250 248 249 248 248 244
278 278 279 281 282 283 284 286 285 285 282 283 286 285 286 286 286 286 285 285 285 280 288 284 284 290 297 298 307 310 308 298 272 249 249 240 229 242 247 246 243 244 246